Overview Statistics Trail Chart Weather Telemetry Raw packets
 

This is the latest recevied weather packets stored in our database for station/object IZ2WMD-13. If no packets are shown the sender has not sent any weather packets the latest 10 day(s).

<< 1 2 3 4 >>
Time Temp. Humidity Pressure Rain* Wind** Luminosity Snow
1788580894 17.78° C 84% 1016.8 hPa - - - -
1788579092 18.33° C 84% 1016.9 hPa - - - -
1788577291 18.33° C 82% 1016.9 hPa - - - -
1788575490 18.33° C 83% 1017 hPa - - - -
1788573690 18.89° C 80% 1017.1 hPa - - - -
1788571885 18.89° C 78% 1016.9 hPa - - - -
1788570084 19.44° C 79% 1017 hPa - - - -
1788568282 19.44° C 80% 1017.1 hPa - - - -
1788566481 20° C 78% 1017.3 hPa - - - -
1788564680 20° C 77% 1017.2 hPa - - - -
1788562879 20.56° C 76% 1017.3 hPa - - - -
1788561077 20.56° C 76% 1017.3 hPa - - - -
1788559276 21.67° C 73% 1017.2 hPa - - - -
1788557475 21.67° C 72% 1017.4 hPa - - - -
1788555673 22.22° C 73% 1017.4 hPa - - - -
1788553872 22.78° C 72% 1017.6 hPa - - - -
1788552071 22.78° C 71% 1017.4 hPa - - - -
1788550269 23.33° C 73% 1017.3 hPa - - - -
1788548468 23.89° C 71% 1017.1 hPa - - - -
1788546666 25° C 66% 1016.7 hPa - - - -
1788544865 26.11° C 62% 1016.4 hPa - - - -
1788543064 27.78° C 58% 1016.1 hPa - - - -
1788541262 29.44° C 51% 1016.1 hPa - - - -
1788539461 30.56° C 41% 1016 hPa - - - -
1788537660 31.67° C 37% 1016.1 hPa - - - -

* Rain since midnight (hover to see other rain measurements)
** Current wind speed in m/s (hover to see current wind gust speed)